Time,TemperatureF,DewpointF,PressureIn,WindDirection,WindDirectionDegrees,WindSpeedMPH,WindSpeedGustMPH,Humidity,HourlyPrecipIn,Conditions,Clouds,dailyrainin,SolarRadiationWatts/m^2,SoftwareType,DateUTC
2013-10-28 00:50:00,58.0,25.0,-100.00,ENE,66,8.0,11.0,28,0.00,,,-99.99,0.000000,,2013-10-28 06:50:00,
2013-10-28 01:21:00,58.0,25.0,-100.00,ENE,66,8.0,11.0,28,0.00,,,-99.99,0.000000,,2013-10-28 07:21:00,
2013-10-28 01:32:00,58.0,25.0,-100.00,ENE,66,8.0,11.0,28,0.00,,,-99.99,0.000000,,2013-10-28 07:32:00,
2013-10-28 01:42:00,58.0,25.0,-100.00,ENE,66,8.0,11.0,28,0.00,,,-99.99,0.000000,,2013-10-28 07:42:00,
2013-10-28 02:22:00,57.0,26.0,-100.00,ENE,67,6.0,15.0,30,0.00,,,-99.99,0.000000,,2013-10-28 08:22:00,
2013-10-28 05:50:00,52.0,24.0,-100.00,ESE,109,5.0,9.0,34,0.00,,,-99.99,0.000000,,2013-10-28 11:50:00,
2013-10-28 06:21:00,52.0,24.0,-100.00,ESE,109,5.0,9.0,34,0.00,,,-99.99,0.000000,,2013-10-28 12:21:00,
2013-10-28 06:32:00,52.0,24.0,-100.00,ESE,109,5.0,9.0,34,0.00,,,-99.99,0.000000,,2013-10-28 12:32:00,
2013-10-28 06:41:00,52.0,24.0,-100.00,ESE,109,5.0,9.0,34,0.00,,,-99.99,0.000000,,2013-10-28 12:41:00,
2013-10-28 10:50:00,62.0,20.0,-100.00,East,96,14.0,24.0,19,0.00,,,-99.99,523.000000,,2013-10-28 16:50:00,
2013-10-28 11:22:00,62.0,20.0,-100.00,East,96,14.0,24.0,19,0.00,,,-99.99,523.000000,,2013-10-28 17:22:00,
2013-10-28 11:33:00,62.0,20.0,-100.00,East,96,14.0,24.0,19,0.00,,,-99.99,523.000000,,2013-10-28 17:33:00,
2013-10-28 11:42:00,62.0,20.0,-100.00,East,96,14.0,24.0,19,0.00,,,-99.99,523.000000,,2013-10-28 17:42:00,
2013-10-28 14:21:00,63.0,16.0,-100.00,East,80,15.0,23.0,16,0.00,,,-99.99,229.000000,,2013-10-28 20:21:00,
2013-10-28 15:50:00,57.0,21.0,-100.00,ENE,77,22.0,31.0,24,0.00,,,-99.99,179.000000,,2013-10-28 21:50:00,
2013-10-28 16:23:00,57.0,21.0,-100.00,ENE,77,22.0,31.0,24,0.00,,,-99.99,179.000000,,2013-10-28 22:23:00,
2013-10-28 16:34:00,57.0,21.0,-100.00,ENE,77,22.0,31.0,24,0.00,,,-99.99,179.000000,,2013-10-28 22:34:00,
2013-10-28 16:43:00,57.0,21.0,-100.00,ENE,77,22.0,31.0,24,0.00,,,-99.99,179.000000,,2013-10-28 22:43:00,
2013-10-28 18:21:00,47.0,33.0,-100.00,NE,48,10.0,17.0,60,0.00,,,-99.99,3.000000,,2013-10-29 00:21:00,
2013-10-28 19:21:00,43.0,37.0,-100.00,ENE,78,10.0,16.0,80,0.00,,,-99.99,0.000000,,2013-10-29 01:21:00,
2013-10-28 20:50:00,41.0,37.0,-100.00,ENE,68,4.0,6.0,85,0.06,,,-99.99,0.000000,,2013-10-29 02:50:00,
2013-10-28 21:27:00,41.0,37.0,-100.00,ENE,68,4.0,6.0,85,0.06,,,-99.99,0.000000,,2013-10-29 03:27:00,
2013-10-28 21:40:00,-999.0,-99.9,-100.00,ENE,68,4.0,6.0,85,0.06,,,-99.99,0.000000,,2013-10-29 03:40:00,
2013-10-28 21:47:00,41.0,37.0,-100.00,ENE,68,4.0,6.0,85,0.06,,,-99.99,0.000000,,2013-10-29 03:47:00,